Location: Pandora
(40.9481°N, 83.9611°W)
Time: 17:43:02
(UTC-04:00)

Envisat - Pass Details

Date: 18 September 2021
Orbit: 764 x 766 km, 98.2° (Epoch: 15 October)

Event Time Altitude Azimuth Distance (km) Brightness Sun altitude
Rises 05:59:28 0° 24° (NNE) 3,238 6.9 -15.7°
Reaches altitude 10° 06:02:03 10° 35° (NE) 2,307 6.2 -15.3°
Maximum altitude 06:06:29 30° 96° (E) 1,359 5.0 -14.4°
Drops below altitude 10° 06:10:52 10° 156° (SSE) 2,292 5.6 -13.6°
Sets 06:13:26 0° 167° (SSE) 3,213 6.2 -13.2°
